Regional Weather Roundup
Issued by NWS

Home | Current Version | Previous Version | Graphics & Text | Print | Product List | Glossary On
Versions: 1 2 3 4 5 6 7 8 9 10 11 12 13 14 15 16 17 18 19 20 21 22 23 24 25 26 27 28 29 30 31 32 33 34 35 36 37 38 39 40 41 42 43 44 45 46 47 48 49 50
000
ASUS43 KMPX 200901
RWRMN
WEATHER ROUNDUP FOR MINNESOTA
NATIONAL WEATHER SERVICE TWIN CITIES/CHANHASSEN MN
400 AM CDT FRI OCT 20 2017


NOTE: "FAIR" INDICATES FEW OR NO CLOUDS BELOW 12,000 FEET WITH NO
SIGNIFICANT WEATHER AND/OR OBSTRUCTIONS TO VISIBILITY. N/A MEANS
CURRENT SKY AND/OR WEATHER CONDITIONS ARE NOT AVAILABLE.

MNZ060>063-068>070-201000-
   Twin Cities Metro

CITY           SKY/WX    TMP DP  RH WIND       PRES   REMARKS
TWIN CITIES    FAIR      55  50  83 SE6       29.90F
ST PAUL        FAIR      51  48  89 SE6       29.92S
CRYSTAL        FAIR      51  46  83 SE3       29.88F
BLAINE         FAIR      54  48  82 SE3       29.89F
LAKEVILLE      FAIR      54  48  82 S5        29.91S
EDEN PRAIRIE   FAIR      60  51  72 S9        29.88F
SOUTH ST PAUL  FAIR      51  48  89 CALM      29.91F
LAKE ELMO      FAIR      54  48  82 S8        29.92S
$$
MNZ001>005-007-008-013>017-022>024-027-028-201000-
   Northwest Minnesota

CITY           SKY/WX    TMP DP  RH WIND       PRES   REMARKS
BEMIDJI        FAIR      54  44  71 S8        29.75S
HALLOCK        FAIR      46  39  76 SE9       29.64F
ROSEAU         FAIR      48  43  81 S6        29.69S
WARROAD        FAIR      50  43  76 S5        29.69F
CROOKSTON      FAIR      54  46  76 S9        29.67F
FOSSTON        FAIR      55  45  67 SE9       29.71F
DETROIT LAKES  FAIR      52  46  82 SE8       29.74F
MOORHEAD       FAIR      55  48  76 S15       29.68F
PARK RAPIDS    FAIR      49  43  80 S8        29.77F
MAHNOMEN       FAIR      57  47  68 S8        29.70F
$$
MNZ006-009>011-018-025>026-201000-
   North Central Minnesota

CITY           SKY/WX    TMP DP  RH WIND       PRES   REMARKS
BAUDETTE       FAIR      47  40  76 SE6       29.72F
FLAG ISLAND    FAIR      54  45  71 SE6       29.69F
INTL FALLS     FAIR      44  36  73 SE5       29.77F
WASKISH        FAIR      52  45  76 SE5       29.74F
BIG FORK       FAIR      48  39  71 SE3       29.79F
LONGVILLE      FAIR      50  43  76 SE3       29.79F
GRAND RAPIDS   FAIR      53  42  66 S12       29.82F
CRANE LAKE     FAIR      48  37  66 S6        29.82F
ORR            FAIR      48  36  61 SE5       29.79S
COOK           FAIR      54  39  58 S5        29.82F
WALKER         FAIR      54  45  71 SE5       29.76F
$$
MNZ012-019>021-037-201000-
   Northeast Minnesota

CITY           SKY/WX    TMP DP  RH WIND       PRES   REMARKS
DULUTH         FAIR      53  42  66 SW9       29.86F
ELY            FAIR      52  37  58 S3        29.84F
HIBBING        FAIR      34  32  92 CALM      29.84S
EVELETH        FAIR      42  39  89 CALM      29.86S
DULUTH HARBOR  FAIR      52  46  82 CALM      29.87F
TWO HARBORS    FAIR      43  37  81 CALM      29.85F
SILVER BAY     FAIR      36  34  93 CALM      29.86F
GRAND MARAIS     N/A     43  39  86 N3        29.88F
G MARAIS ARPRT FAIR      46  34  61 S3        29.90S
$$
MNZ029>031-032-039>041-046>048-054>057-064-201000-
   West Central Minnesota

CITY           SKY/WX    TMP DP  RH WIND       PRES   REMARKS
FERGUS FALLS   FAIR      55  48  76 SE14      29.74F
WHEATON        FAIR      52  46  82 SE10      29.74S
MORRIS         FAIR      52  48  87 SE10      29.76F
ALEXANDRIA     FAIR      57  50  77 S13       29.80F
ELBOW LAKE     FAIR      52  49  87 E10       29.76F
WADENA         FAIR      52  46  82 S3        29.77F
GLENWOOD       FAIR      54  48  82 S8        29.81F
APPLETON       FAIR      55  48  76 SE7       29.77F
BENSON         FAIR      55  48  76 S9        29.80F
ORTONVILLE     FAIR      52  46  82 NE8       29.75F
MADISON        FAIR      64  50  59 S10       29.76F
WILLMAR        FAIR      52  48  87 SE6       29.84F
$$
MNZ033>034-036-042>043-049>051-058-059-201000-
   Central Minnesota

CITY           SKY/WX    TMP DP  RH WIND       PRES   REMARKS
ST CLOUD       FAIR      49  47  93 SE8       29.85F
SAUK CENTRE    FAIR      51  47  88 SE8       29.82F
PAYNESVILLE    FAIR      55  50  85 S9        29.84F
AITKIN         FAIR      52  45  76 S7        29.81F
PINE RIVER     FAIR      45  39  81 S5        29.83F
BRAINERD       FAIR      53  47  79 S10       29.82F
STAPLES        FAIR      52  45  76 S8        29.79F
LONG PRAIRIE   FAIR      50  46  87 SE9       29.81F
LITTLE FALLS   FAIR      52  41  66 SE7       29.83F
LITCHFIELD     FAIR      55  52  88 CALM      29.86S
BUFFALO        FAIR      56  49  77 S6        29.88F
MAPLE LAKE     FAIR      55  51  87 S5        29.87F
HUTCHINSON     FAIR      55  51  86 S6        29.87F
$$
MNZ037-044-045-052-053-201000-
   East Central Minnesota

CITY           SKY/WX    TMP DP  RH WIND       PRES   REMARKS
PRINCETON      FAIR      46  43  87 CALM      29.87F
MORA           FAIR      39  36  87 CALM      29.89F
CAMBRIDGE      FAIR      55  45  67 SE7       29.88F
RUSH CITY      MOCLDY    52  45  76 S6        29.89F
MOOSE LAKE     FAIR      52  41  66 S6        29.85F
HINCKLEY       FAIR      43  39  87 S3        29.88F
CLOQUET        FAIR      54  39  58 S7        29.86F
MCGREGOR       FAIR      52  43  71 S6        29.84F
$$
MNZ071>073-080-081-089-090-097-098-201000-
   Southwest Minnesota

CITY           SKY/WX    TMP DP  RH WIND       PRES   REMARKS
MONTEVIDEO     FAIR      55  48  76 S8        29.79F
GRANITE FALLS  FAIR      58  51  77 SE7       29.83F
CANBY          FAIR      65  49  55 SW16G23   29.78S
MARSHALL       FAIR      62  49  62 SW18      29.81S
REDWOOD FALLS  FAIR      52  47  83 S8        29.84F
OLIVIA         FAIR      54  50  87 S9        29.83F
PIPESTONE      FAIR      57  46  67 S12       29.85F
WORTHINGTON    FAIR      59  48  67 S13       29.90S
JACKSON        FAIR      55  48  76 S12       29.92S
TRACY          FAIR      63  51  65 S16G24    29.83F
SLAYTON        FAIR      58  49  72 S13G18    29.87F
$$
MNZ065>067-074>077-082>085-091>093-201000-
   South Central Minnesota

CITY           SKY/WX    TMP DP  RH WIND       PRES   REMARKS
MANKATO        FAIR      56  50  80 S8        29.91F
NEW ULM        FAIR      54  48  82 S10       29.88S
ST JAMES       FAIR      54  50  87 S9        29.90F
FAIRMONT       FAIR      54  49  83 S10       29.92F
GLENCOE        FAIR      57  51  80 S7        29.87F
FARIBAULT      FAIR      54  48  82 S7        29.93S
OWATONNA       FAIR      55  50  82 S13       29.94S
WASECA         FAIR      55  50  82 S8        29.94F
$$
MNZ078>079-086>088-094>096-201000-
   Southeast Minnesota

CITY           SKY/WX    TMP DP  RH WIND       PRES   REMARKS
ROCHESTER      FAIR      53  49  86 S9        29.98F
RED WING       FAIR      55  46  71 SE5       29.93F
STANTON        FAIR      59  50  74 S8        29.91S
DODGE CENTER   FAIR      57  48  72 S16       29.96S
WINONA         FAIR      55  48  76 SE5       29.99S
AUSTIN         FAIR      55  48  76 S7        29.98S
PRESTON        FAIR      55  48  78 S13       30.00F
$$
ABBREVIATIONS USED IN REMARKS
   TC - TEMPERATURES IN CELSIUS
  WCI - WIND CHILL INDEX
   HX - HEAT INDEX
  VSB - VISIBILITY
$$




USA.gov is the U.S. government's official web portal to all federal, state and local government web resources and services.